TimeEST,TemperatureF,Dew PointF,Humidity,Sea Level PressureIn,VisibilityMPH,Wind Direction,Wind SpeedMPH,Gust SpeedMPH,PrecipitationIn,Events,Conditions,WindDirDegrees,DateUTC
12:57 AM,54.0,52.0,93,29.97,6.0,Calm,Calm,-,N/A,,Overcast,0,2013-01-02 05:57:00
1:07 AM,53.6,51.8,94,29.95,5.0,Calm,Calm,-,N/A,,Overcast,0,2013-01-02 06:07:00
1:19 AM,53.6,51.8,94,29.93,4.0,Calm,Calm,-,N/A,,Overcast,0,2013-01-02 06:19:00
1:44 AM,53.6,51.8,94,29.94,5.0,Calm,Calm,-,N/A,,Overcast,0,2013-01-02 06:44:00
1:57 AM,53.1,52.0,96,29.95,5.0,Calm,Calm,-,N/A,,Overcast,0,2013-01-02 06:57:00
2:57 AM,53.1,52.0,96,29.94,5.0,Calm,Calm,-,0.00,,Overcast,0,2013-01-02 07:57:00
3:27 AM,53.6,51.8,94,29.93,6.0,Calm,Calm,-,0.00,,Overcast,0,2013-01-02 08:27:00
3:57 AM,53.1,52.0,96,29.95,4.0,NNW,3.5,-,0.01,Rain,Light Rain,340,2013-01-02 08:57:00
4:09 AM,53.6,51.8,94,29.93,3.0,North,4.6,-,0.02,Rain,Light Rain,10,2013-01-02 09:09:00
4:33 AM,53.6,51.8,94,29.93,2.5,NNE,3.5,-,0.05,Rain,Light Rain,20,2013-01-02 09:33:00
4:57 AM,53.1,51.1,93,29.94,3.0,NE,5.8,-,0.08,Rain,Light Rain,40,2013-01-02 09:57:00
5:29 AM,53.6,51.8,94,29.93,2.5,NE,4.6,-,0.07,Rain,Heavy Rain,40,2013-01-02 10:29:00
5:40 AM,51.8,50.0,94,29.94,3.0,NNE,12.7,17.3,0.09,Rain,Rain,30,2013-01-02 10:40:00
5:57 AM,50.0,48.0,93,29.96,5.0,NE,8.1,-,0.11,Rain,Light Rain,40,2013-01-02 10:57:00
6:05 AM,48.2,48.2,100,29.95,5.0,NNE,6.9,-,0.00,Rain,Light Rain,30,2013-01-02 11:05:00
6:14 AM,48.2,48.2,100,29.94,3.0,NE,9.2,-,0.01,Rain,Light Rain,40,2013-01-02 11:14:00
6:57 AM,48.0,46.9,96,29.95,9.0,NNE,8.1,-,0.02,Rain,Light Rain,30,2013-01-02 11:57:00
7:57 AM,48.0,46.0,93,29.98,8.0,NNE,6.9,-,0.01,Rain,Light Rain,20,2013-01-02 12:57:00
8:23 AM,48.2,46.4,93,30.00,3.0,North,10.4,-,0.01,Rain,Light Rain,10,2013-01-02 13:23:00
8:31 AM,48.2,46.4,93,30.00,2.5,North,6.9,-,0.02,Rain,Light Rain,10,2013-01-02 13:31:00
8:57 AM,48.0,46.0,93,30.03,4.0,NNE,10.4,-,0.03,Rain,Light Rain,30,2013-01-02 13:57:00
9:57 AM,48.0,46.0,93,30.05,6.0,NNE,9.2,-,0.00,Rain,Light Rain,30,2013-01-02 14:57:00
10:57 AM,46.9,45.0,93,30.06,10.0,NNE,11.5,18.4,0.00,,Overcast,30,2013-01-02 15:57:00
11:57 AM,48.9,46.9,93,30.04,10.0,NE,3.5,-,0.00,,Overcast,50,2013-01-02 16:57:00
12:29 PM,50.0,46.4,87,30.02,10.0,North,9.2,-,N/A,,Overcast,10,2013-01-02 17:29:00
12:37 PM,50.0,46.4,87,30.02,10.0,NE,8.1,-,N/A,,Overcast,40,2013-01-02 17:37:00
12:57 PM,50.0,45.0,83,30.03,10.0,North,9.2,-,0.01,,Overcast,10,2013-01-02 17:57:00
1:57 PM,48.9,44.1,83,30.05,10.0,North,8.1,-,N/A,,Overcast,360,2013-01-02 18:57:00
2:21 PM,46.4,42.8,87,30.05,10.0,North,11.5,17.3,N/A,,Overcast,10,2013-01-02 19:21:00
2:57 PM,45.0,42.1,90,30.08,6.0,NNE,11.5,-,N/A,,Overcast,20,2013-01-02 19:57:00
3:57 PM,44.1,41.0,89,30.10,8.0,North,6.9,-,N/A,,Overcast,10,2013-01-02 20:57:00
4:44 PM,44.6,39.2,81,30.11,8.0,NNE,6.9,-,N/A,,Overcast,20,2013-01-02 21:44:00
4:57 PM,44.1,39.9,85,30.13,8.0,NNE,4.6,-,N/A,,Overcast,20,2013-01-02 21:57:00
5:57 PM,44.1,39.9,85,30.14,9.0,NNE,6.9,-,N/A,,Overcast,20,2013-01-02 22:57:00
6:57 PM,43.0,39.0,86,30.16,9.0,NNE,10.4,-,N/A,,Overcast,30,2013-01-02 23:57:00
7:57 PM,43.0,37.9,82,30.16,10.0,NNE,8.1,-,N/A,,Overcast,30,2013-01-03 00:57:00
8:57 PM,42.1,37.0,82,30.19,9.0,NNE,6.9,-,N/A,,Overcast,20,2013-01-03 01:57:00
9:18 PM,41.0,35.6,81,30.18,10.0,NNE,4.6,-,N/A,,Scattered Clouds,30,2013-01-03 02:18:00
9:57 PM,41.0,36.0,82,30.20,10.0,NNE,4.6,-,N/A,,Clear,30,2013-01-03 02:57:00
10:57 PM,39.9,35.1,83,30.20,10.0,North,5.8,-,N/A,,Clear,10,2013-01-03 03:57:00
11:57 PM,39.9,35.1,83,30.22,10.0,NNW,5.8,-,N/A,,Clear,340,2013-01-03 04:57:00